Location: ??
(34.9170°N, 135.5016°E)
Time: 04:41:59
(UTC+00:00)

Explorer 7 - Pass Details

Date: 26 February 2021
Orbit: 484 x 677 km, 50.3° (Epoch: 14 April)

Event Time Altitude Azimuth Distance (km) Brightness Sun altitude
Rises 11:22:20 0° 320° (NW) 2,671 11.0 -31.7°
Enters shadow 11:24:47 - 338° (NNW) 1,929 10.0 -32.2°
Reaches altitude 10° 11:25:36 10° 348° (NNW) 1,739 - -32.3°
Maximum altitude 11:27:37 13° 18° (NNE) 1,509 - -32.7°
Drops below altitude 10° 11:29:35 10° 50° (NE) 1,698 - -33.1°
Sets 11:32:41 0° 78° (ENE) 2,556 - -33.7°
